Weather History for Midland Airpark, TX

Change the Weather History Date:

Tuesday, November 13, 2012

  Actual Average (KMAF) Record (KMAF)
Temperature  
Mean Temperature 49 °F 54 °F  
Max Temperature 59 °F 68 °F 84 °F (1989)
Min Temperature 39 °F 40 °F 15 °F (1976)
Degree Days  
Heating Degree Days 16 11  
Month to date heating degree days 117  
Since 1 July heating degree days 226  
Moisture  
Dew Point 18 °F    
Average Humidity 32    
Maximum Humidity 46    
Minimum Humidity 20    
Precipitation  
Precipitation 0.00 in 0.02 in 0.84 in (1958)
Month to date precipitation 0.32  
Year to date precipitation 13.63  
Snow  
Snow 0.00 in - - ()
Month to date snowfall  
Since 1 July snowfall  
Since 1 September snowfall  
Snow Depth -    
Sea Level Pressure  
Sea Level Pressure 30.33 in    
Wind  
Wind Speed 8 mph (SE)    
Max Wind Speed 16 mph    
Max Gust Speed 23 mph    
Visibility 10 miles    
Events      
T = Trace of Precipitation, MM = Missing Value Source: NWS Daily Summary

Daily Weather History Graph

Daily Weather History Graph

Search for Another Location

Airport:

Trip Planner

Search our weather history database for the weather conditions in past years. The results will help you decide how hot, cold, wet, or windy it might be!

Date:

Astronomy

Nov. 13, 2012 Rise Set
Actual Time 7:15 AM CST 5:49 PM CST
Civil Twilight 6:50 AM CST 6:15 PM CST
Nautical Twilight 6:20 AM CST 6:44 PM CST
Astronomical Twilight 5:51 AM CST 7:13 PM CST
Moon 6:55 AM CST (11/13) 5:46 PM CST (11/13)
Length of Visible Light 11h 25m
Length of Day
10h 33m
Waning Crescent, 0% of the Moon is Illuminated
Nov 13
Waning Crescent
Nov 13
New
Nov 20
First Quarter
Nov 28
Full
Dec 6
Last Quarter

Hourly Weather History & Observations

Time (CST) Temp. Windchill Dew Point Humidity Pressure Visibility Wind Dir Wind Speed Gust Speed Precip Events Conditions
12:15 AM 41.5 °F 37.1 °F 21.0 °F 44% 30.44 in 10.0 mi ESE 6.9 mph - N/A   Clear
12:35 AM 41.5 °F 38.6 °F 20.5 °F 43% 30.43 in 10.0 mi ESE 4.6 mph - N/A   Clear
12:55 AM 41.2 °F 38.2 °F 20.5 °F 44% 30.42 in 10.0 mi ESE 4.6 mph - N/A   Clear
1:15 AM 41.0 °F 37.1 °F 20.3 °F 44% 30.41 in 10.0 mi ESE 5.8 mph - N/A   Clear
1:55 AM 40.6 °F 36.0 °F 20.1 °F 44% 30.39 in 10.0 mi ESE 6.9 mph - N/A   Clear
2:15 AM 41.0 °F 35.8 °F 19.9 °F 43% 30.40 in 10.0 mi ESE 8.1 mph - N/A   Clear
2:35 AM 40.8 °F 36.2 °F 19.9 °F 43% 30.39 in 10.0 mi ESE 6.9 mph - N/A   Clear
2:55 AM 40.5 °F 35.8 °F 19.6 °F 43% 30.38 in 10.0 mi ESE 6.9 mph - N/A   Clear
3:15 AM 40.1 °F 36.1 °F 19.4 °F 43% 30.38 in 10.0 mi ESE 5.8 mph - N/A   Clear
3:35 AM 40.1 °F 35.3 °F 19.6 °F 44% 30.37 in 10.0 mi ESE 6.9 mph - N/A   Clear
3:55 AM 40.1 °F 35.3 °F 19.6 °F 44% 30.37 in 10.0 mi ESE 6.9 mph - N/A   Clear
4:15 AM 39.9 °F 35.8 °F 19.8 °F 44% 30.37 in 10.0 mi ESE 5.8 mph - N/A   Clear
4:35 AM 39.6 °F 35.4 °F 19.9 °F 45% 30.38 in 10.0 mi ESE 5.8 mph - N/A   Clear
4:55 AM 39.7 °F 36.5 °F 20.1 °F 45% 30.39 in 10.0 mi East 4.6 mph - N/A   Clear
5:15 AM 39.6 °F 35.4 °F 20.1 °F 46% 30.38 in 10.0 mi ESE 5.8 mph - N/A   Clear
5:35 AM 39.6 °F 36.3 °F 20.3 °F 46% 30.38 in 10.0 mi ESE 4.6 mph - N/A   Clear
6:15 AM 39.7 °F 34.9 °F 20.3 °F 46% 30.38 in 10.0 mi ESE 6.9 mph - N/A   Clear
6:35 AM 39.6 °F 34.7 °F 20.1 °F 46% 30.38 in 10.0 mi ESE 6.9 mph - N/A   Clear
6:55 AM 39.4 °F 35.2 °F 20.3 °F 46% 30.38 in 10.0 mi ESE 5.8 mph - N/A   Clear
7:15 AM 39.6 °F 34.7 °F 20.3 °F 46% 30.38 in 10.0 mi ESE 6.9 mph - N/A   Clear
7:35 AM 39.9 °F 33.9 °F 20.1 °F 45% 30.38 in 10.0 mi SE 9.2 mph - N/A   Clear
7:55 AM 40.5 °F 34.1 °F 19.8 °F 44% 30.39 in 10.0 mi SE 10.4 mph - N/A   Clear
8:15 AM 41.0 °F 34.7 °F 19.6 °F 42% 30.39 in 10.0 mi SSE 10.4 mph - N/A   Clear
8:35 AM 41.5 °F 35.0 °F 19.2 °F 41% 30.39 in 10.0 mi SE 11.5 mph - N/A   Clear
8:55 AM 42.6 °F 35.9 °F 19.0 °F 39% 30.39 in 10.0 mi SSE 12.7 mph - N/A   Clear
9:15 AM 44.2 °F 38.0 °F 18.7 °F 36% 30.39 in 10.0 mi SE 12.7 mph 18.4 mph N/A   Clear
9:35 AM 45.9 °F 39.1 °F 17.4 °F 32% 30.38 in 10.0 mi SE 16.1 mph - N/A   Clear
10:15 AM 48.4 °F - 14.9 °F 26% 30.37 in 10.0 mi SE 12.7 mph - N/A   Clear
10:35 AM 50.0 °F - 14.9 °F 25% 30.37 in 10.0 mi SSE 16.1 mph 19.6 mph N/A   Clear
10:55 AM 50.9 °F - 15.3 °F 24% 30.37 in 10.0 mi SSE 15.0 mph - N/A   Clear
11:15 AM 52.2 °F - 14.9 °F 23% 30.35 in 10.0 mi SSE 13.8 mph 19.6 mph N/A   Clear
11:35 AM 53.8 °F - 14.0 °F 21% 30.34 in 10.0 mi SSE 15.0 mph 19.6 mph N/A   Clear
11:55 AM 54.7 °F - 15.3 °F 21% 30.34 in 10.0 mi SE 15.0 mph 19.6 mph N/A   Clear
12:15 PM 55.4 °F - 14.9 °F 20% 30.33 in 10.0 mi SSE 13.8 mph 21.9 mph N/A   Clear
12:55 PM 57.7 °F - 16.0 °F 20% 30.30 in 10.0 mi SE 16.1 mph - N/A   Clear
1:15 PM 57.9 °F - 16.9 °F 20% 30.28 in 10.0 mi SSE 15.0 mph 23.0 mph N/A   Clear
1:35 PM 58.5 °F - 17.1 °F 20% 30.28 in 10.0 mi SSE 13.8 mph 18.4 mph N/A   Clear
1:55 PM 59.0 °F - 18.1 °F 20% 30.28 in 10.0 mi SSE 11.5 mph 20.7 mph N/A   Clear
2:15 PM 59.2 °F - 18.3 °F 20% 30.27 in 10.0 mi South 11.5 mph - N/A   Clear
2:35 PM 59.2 °F - 18.1 °F 20% 30.26 in 10.0 mi SSE 11.5 mph - N/A   Clear
2:55 PM 59.2 °F - 18.9 °F 21% 30.26 in 10.0 mi South 9.2 mph 17.3 mph N/A   Clear
3:15 PM 59.2 °F - 19.4 °F 21% 30.24 in 10.0 mi SE 12.7 mph 19.6 mph N/A   Clear
3:35 PM 59.4 °F - 19.6 °F 21% 30.23 in 10.0 mi SSE 12.7 mph - N/A   Clear
3:55 PM 59.4 °F - 19.6 °F 21% 30.23 in 10.0 mi South 11.5 mph - N/A   Clear
4:15 PM 59.4 °F - 19.0 °F 21% 30.22 in 10.0 mi SSE 11.5 mph 20.7 mph N/A   Clear
4:35 PM 59.2 °F - 18.5 °F 21% 30.22 in 10.0 mi SSE 11.5 mph - N/A   Clear
4:55 PM 58.8 °F - 18.1 °F 21% 30.23 in 10.0 mi SSE 11.5 mph - N/A   Clear
5:15 PM 58.1 °F - 18.1 °F 21% 30.22 in 10.0 mi South 12.7 mph - N/A   Clear
5:35 PM 57.0 °F - 18.0 °F 22% 30.22 in 10.0 mi SSE 11.5 mph - N/A   Clear
5:55 PM 55.9 °F - 17.8 °F 22% 30.23 in 10.0 mi SSE 9.2 mph - N/A   Clear
6:15 PM 54.9 °F - 17.6 °F 23% 30.24 in 10.0 mi South 8.1 mph - N/A   Clear
6:35 PM 54.0 °F - 17.8 °F 24% 30.25 in 10.0 mi South 6.9 mph - N/A   Clear
6:55 PM 52.7 °F - 18.1 °F 26% 30.26 in 10.0 mi South 4.6 mph - N/A   Clear
7:15 PM 51.8 °F - 18.3 °F 27% 30.27 in 10.0 mi South 5.8 mph - N/A   Clear
7:35 PM 50.5 °F - 18.3 °F 28% 30.26 in 10.0 mi SSE 6.9 mph - N/A   Clear
7:55 PM 50.2 °F - 18.0 °F 28% 30.27 in 10.0 mi SSE 4.6 mph - N/A   Clear
8:15 PM 48.9 °F - 17.8 °F 29% 30.27 in 10.0 mi SSE 5.8 mph - N/A   Clear
8:35 PM 48.9 °F - 17.2 °F 28% 30.28 in 10.0 mi SSE 6.9 mph - N/A   Clear
8:55 PM 49.1 °F - 16.5 °F 27% 30.28 in 10.0 mi SSE 6.9 mph - N/A   Clear
9:15 PM 48.4 °F - 16.2 °F 28% 30.28 in 10.0 mi SSE 9.2 mph - N/A   Clear
9:35 PM 48.4 °F - 15.8 °F 27% 30.30 in 10.0 mi SSE 6.9 mph - N/A   Clear
9:55 PM 46.9 °F - 16.5 °F 30% 30.31 in 10.0 mi South 6.9 mph - N/A   Clear
10:15 PM 45.9 °F 42.3 °F 16.7 °F 31% 30.31 in 10.0 mi South 6.9 mph - N/A   Clear
10:35 PM 45.1 °F 42.0 °F 16.7 °F 32% 30.32 in 10.0 mi South 5.8 mph - N/A   Clear
10:55 PM 44.1 °F 40.8 °F 16.9 °F 34% 30.32 in 10.0 mi South 5.8 mph - N/A   Clear
11:15 PM 43.5 °F 40.9 °F 16.9 °F 34% 30.32 in 10.0 mi SSE 4.6 mph - N/A   Clear
11:35 PM 42.6 °F 40.9 °F 17.1 °F 36% 30.31 in 10.0 mi SSE 3.5 mph - N/A   Clear
11:55 PM 42.8 °F 40.1 °F 17.4 °F 36% 30.31 in 10.0 mi South 4.6 mph - N/A   Clear